ICEYE-X52

operational
NORAD ID: 64572 Int'l Des: 2025-135 Owner: ICEYE Country: FI
LEOCIRCULARRETROGRADESSO

Über ICEYE-X52

Beschreibung wird geladen...

Live-Position

3D-Globus wird geladen...

Nächste Überflüge

Höhenverlauf

Altitude vs Time

uPlot chart will show altitude changes over time

Zweizeiliger Elementsatz

1 64572U 25135AW 25340.86749193 .00005516 00000-0 54276-3 0 9995
2 64572 97.7616 92.5894 0000868 211.5505 148.5663 14.92490371 25189
Epoch: 6. Dez. 2025 • Age: 19 hours

Aktueller Status

Höhe 596.1 km
Geschwindigkeit 7.56 km/s
Subsatellitenpunkt -16.11°S, 36.47°W
Startdatum 23. Juni 2025
Alter 0.4 years
Typ earth observation

Technische Details

Klassifizierung Payload
Masse 80.00 kg
Trockenmasse 80.00 kg
Gesamtmasse 80.00 kg
Länge 0.80 m
Durchmesser 0.60 m
Spannweite 1.50 m
Form Box + pan
Hersteller ICEYE
Bus-Typ ICEYE
Phasenstatus In Orbit
Besitzer/Staat ICEYE/FI

Große Konstellationen

Loading constellations...